Location: Cahoon Acres
(40.8736°N, 111.8994°W)
Time: 18:42:36
(UTC+00:00)

Transit 4A - Visible Passes

Search period start: 06 June 2020 00:00
Search period end: 16 June 2020 00:00
Orbit: 868 x 976 km, 66.8° (Epoch: 06 June)

Date Brightness Start Highest point End Pass type
(mag) Time Alt. Az. Time Alt. Az. Time Alt. Az.
06 Jun 9.0 06:30:32 27° E 06:30:32 27° E 06:34:39 10° NE visible
06 Jun 8.5 08:14:01 36° W 08:15:48 46° NW 08:21:31 10° NNE visible
06 Jun 10.3 10:02:32 10° NW 10:03:47 11° NNW 10:05:03 10° NNW visible
07 Jun 8.3 06:39:12 42° ESE 06:39:12 42° ESE 06:44:23 10° NE visible
07 Jun 9.1 08:22:41 23° W 08:25:19 33° NW 08:30:38 10° NNE visible
08 Jun 7.7 06:47:49 63° SE 06:48:04 64° ESE 06:53:56 10° NE visible
08 Jun 9.6 08:31:17 14° W 08:34:55 24° NW 08:39:38 10° N visible
09 Jun 9.7 05:12:53 13° E 05:12:53 13° E 05:14:32 10° ENE visible
09 Jun 7.7 06:56:21 63° SW 06:57:22 86° WNW 07:03:19 10° NNE visible
09 Jun 10.0 08:40:49 10° W 08:44:38 17° NW 08:48:30 10° N visible
10 Jun 9.1 05:21:20 21° E 05:21:20 21° E 05:25:11 10° ENE visible
10 Jun 8.2 07:04:47 40° WSW 07:06:43 59° WNW 07:12:36 10° NNE visible
10 Jun 10.3 08:51:49 10° WNW 08:54:25 13° NW 08:57:04 10° N visible
11 Jun 8.5 05:29:40 32° ESE 05:30:00 32° ESE 05:35:09 10° NE visible
11 Jun 8.8 07:13:08 24° WSW 07:16:11 41° NW 07:21:47 10° NNE visible
12 Jun 8.0 05:37:54 42° SSE 05:39:08 49° ESE 05:44:49 10° NE visible
12 Jun 9.4 07:21:20 13° WSW 07:25:44 29° NW 07:30:51 10° NNE visible
13 Jun 7.7 05:45:57 37° SSW 05:48:22 74° ESE 05:54:18 10° NNE visible
13 Jun 9.9 07:30:59 10° W 07:35:22 21° NW 07:39:49 10° N visible
14 Jun 9.3 04:10:22 14° ESE 04:12:06 16° ESE 04:15:29 10° ENE visible
14 Jun 7.9 05:53:46 22° SW 05:57:40 75° WNW 06:03:38 10° NNE visible
14 Jun 10.3 07:41:39 10° WNW 07:45:06 16° NW 07:48:36 10° N visible
15 Jun 8.8 04:17:52 15° SSE 04:21:08 25° ESE 04:25:47 10° NE visible
15 Jun 8.5 06:01:25 10° SW 06:07:04 51° NW 06:12:53 10° NNE visible
15 Jun 10.6 07:52:55 10° NW 07:54:56 12° NNW 07:56:58 10° NNW visible
